Lid_Strength_Index
1 1 1 1 2 2 2 3 4 6 5 3 4 2 0 0 0 1 1 2 2 2 1 1 0 1 1 0 -0 -0 -1 -1 -1 -1 -1 -2 -2 -2
1 1 1 1 1 1 2 2 2 3 5 3 2 3 1 -0 0 1 0 1 1 2 2 2 1 1 0 1 1 1 1 0 0 -0 -0 -1 -1 -2
1 1 1 1 1 1 1 2 2 2 4 3 2 1 1 1 0 1 -0 1 1 2 2 2 2 2 1 2 1 1 1 1 1 1 0 0 -1 -1
1 2 1 1 1 2 1 2 2 2 3 4 3 2 2 2 1 1 0 -1 1 2 4 4 4 4 4 4 3 2 3 2 2 2 1 1 1 -0
1 1 1 2 2 1 2 2 2 2 2 2 3 2 1 1 1 0 1 0 -0 2 4 4 4 5 5 5 5 5 5 5 4 4 3 3 2 1
1 1 1 1 2 1 1 2 2 2 2 2 3 2 2 1 2 2 2 1 1 -0 1 2 2 3 5 5 6 5 6 7 7 6 6 5 4 3
1 1 1 1 2 2 1 2 2 2 3 3 3 3 3 3 3 2 2 2 2 1 1 1 1 1 1 2 3 4 5 6 7 7 8 8 7 6
2 1 3 3 3 3 3 2 2 3 3 3 3 4 3 3 2 2 2 3 4 1 1 1 0 1 0 0 4 5 6 6 7 8 9 9 9 8
2 1 3 4 4 2 2 3 4 5 3 3 3 3 3 2 2 2 2 3 3 1 1 2 0 1 0 1 4 5 6 6 7 8 7 8 9 9
3 5 6 7 6 3 3 4 6 6 5 4 4 4 3 3 2 1 2 2 2 1 1 4 1 2 0 1 3 3 4 6 7 7 8 9 10 11
5 6 7 7 5 4 6 7 7 6 4 4 4 3 3 3 4 2 3 3 4 3 1 3 3 2 2 1 0 1 3 7 8 6 6 9 10 11
8 8 6 7 7 6 7 8 7 6 4 5 5 5 4 4 3 3 2 3 3 3 2 3 3 2 3 2 0 0 4 5 6 6 8 8 10 5
7 8 8 7 8 8 7 7 7 6 4 5 5 4 4 4 5 5 4 2 4 5 4 3 3 2 3 3 2 2 5 5 4 4 6 8 8 7
9 10 9 9 9 8 6 6 5 4 5 5 6 6 5 5 5 5 5 5 5 5 5 5 5 6 7 7 7 6 6 6 6 7 7 7 7 7
11 10 9 9 8 7 7 6 6 7 7 7 8 8 7 6 6 5 5 5 5 4 4 5 5 5 5 7 7 8 8 7 7 8 8 8 8 7
9 6 7 7 7 7 8 8 7 7 8 8 8 8 7 7 6 5 6 5 6 6 6 5 6 6 8 7 7 8 7 8 7 7 6 5 5 5
9 8 8 9 9 10 10 10 9 8 9 8 9 8 8 7 7 7 7 8 9 10 10 9 9 9 9 8 10 10 10 10 9 8 7 8 7 6
10 10 10 10 10 10 11 10 9 8 9 9 9 9 9 9 10 10 9 10 11 11 10 10 11 11 11 11 8 12 11 11 10 10 10 10 10 9
10 11 11 11 11 11 11 11 11 11 11 11 11 11 12 11 11 12 12 12 12 12 12 12 12 13 14 14 11 8 11 11 11 11 11 11 11 9
10 11 11 11 11 11 11 11 11 11 11 11 12 12 13 12 13 14 13 13 13 13 13 13 13 13 13 13 13 11 8 11 11 11 11 10 9 7
11 11 11 11 12 12 12 12 12 12 13 12 13 13 13 13 13 13 13 13 13 13 13 13 12 9 11 11 13 12 11 8 9 10 10 11 11 11
12 12 12 12 12 12 12 13 13 13 13 13 13 13 14 14 14 14 14 14 14 14 13 12 11 11 12 12 13 13 12 11 9 8 7 8 10 11
11 12 12 12 13 13 13 13 13 13 14 14 15 15 15 15 15 14 14 14 14 13 13 13 12 11 12 12 12 12 12 11 11 10 9 8 7 7